Location: Wildlife_Club
(35.6000°N, 81.4330°W)
Time: 00:01:24
(UTC-04:00)

Amateur Radio Satellites - All Passes

Search period start: 14 September 2014 23:31
Search period end: 15 September 2014 23:31
Location: Wildlife_Club, 35.6000°N, 81.4330°W

Satellite Date Start Highest point End Downlink Frequencies (MHz)
Time Altitude Azimuth
FUNcube-1 15 Sep 00:12:04 00:14:42 16° 267° (W) 00:17:23 145.950 - 145.970 MHz USB
Sapphire 15 Sep 00:43:33 00:47:59 26° 253° (WSW) 00:52:23 437.095 MHz 1200 baud AX-25 AFSK
SO-50 15 Sep 00:47:11 00:51:26 43° 304° (NW) 00:55:48 436.795 FM
PCSat 15 Sep 01:13:00 01:15:18 13° 257° (WSW) 01:17:36 145.825 MHz
UOSAT-12 15 Sep 01:14:40 01:18:31 27° 111° (ESE) 01:22:26 437.025 FM, 437.400 FM
JAS-1B 15 Sep 02:13:02 02:14:18 11° 90° (E) 02:15:34 435.800 - 435.900 CW/SSB
AO-Echo 15 Sep 02:23:42 02:26:19 14° 93° (E) 02:28:58 ?
Oscar 19 15 Sep 02:28:02 02:32:49 37° 98° (E) 02:37:33 437.125 CW, 437.150 USB
AO-27 15 Sep 02:33:48 02:37:10 17° 94° (E) 02:40:31 436.795 MHz FM
AO-40 15 Sep 02:50:06 03:25:11 11° 243° (WSW) 04:08:37 Beacon 2401.320
UOSAT-12 15 Sep 02:54:30 02:58:33 29° 307° (NW) 03:02:40 437.025 FM, 437.400 FM
Gurwin Techsat 1B 15 Sep 02:57:47 03:00:10 13° 91° (E) 03:02:33 435.225 FM
Oscar 16 15 Sep 03:05:37 03:10:49 87° 284° (WNW) 03:15:59 437.025 USB, Beacon 2401.1428
Saudisat 1A 15 Sep 03:14:56 03:18:00 18° 49° (NE) 03:21:04 436.775 MHz
TMSAT-1 15 Sep 03:36:41 03:40:56 24° 95° (E) 03:45:09 436.925 FM
ITAMSAT 1 15 Sep 03:38:06 03:43:19 77° 103° (ESE) 03:48:32 435.822 SSB
Uribyol 2 15 Sep 03:43:40 03:48:54 88° 285° (WNW) 03:54:08 436.500 FM
AO-7 15 Sep 03:59:31 04:00:15 10° 89° (E) 04:00:59 29.400 - 29.500 MHz
JAS-1B 15 Sep 03:59:53 04:05:41 71° 286° (WNW) 04:11:19 435.800 - 435.900 CW/SSB
AO-Echo 15 Sep 04:00:40 04:05:18 50° 287° (WNW) 04:10:03 ?
RS-15 15 Sep 04:02:20 04:10:01 22° 102° (ESE) 04:17:34 29.354 - 29.394 USB, Beacon 29.352 USB
ISS 15 Sep 04:03:51 04:06:34 23° 130° (SE) 04:09:17 145.800 FM
Oscar 19 15 Sep 04:07:54 04:11:53 23° 293° (WNW) 04:15:51 437.125 CW, 437.150 USB
AO-27 15 Sep 04:11:54 04:16:54 49° 288° (WNW) 04:21:53 436.795 MHz FM
PANSAT 15 Sep 04:23:25 04:26:03 18° 165° (SSE) 04:28:40 not established
Gurwin Techsat 1B 15 Sep 04:35:16 04:40:32 65° 286° (WNW) 04:45:46 435.225 FM
OPAL 15 Sep 04:51:37 04:56:33 49° 70° (ENE) 05:01:33 ?
Saudisat 1A 15 Sep 04:53:35 04:57:46 44° 245° (WSW) 05:01:56 436.775 MHz
KITSAT 1 15 Sep 05:04:43 05:11:18 27° 47° (NE) 05:17:50 435.175 FM
Uosat F 15 Sep 05:06:27 05:10:48 29° 97° (E) 05:15:08 435.120 FM
TMSAT-1 15 Sep 05:16:04 05:20:52 36° 290° (WNW) 05:25:40 436.925 FM
ITAMSAT 1 15 Sep 05:20:18 05:22:06 12° 298° (WNW) 05:23:55 435.822 SSB
ISS 15 Sep 05:40:13 05:43:11 29° 325° (NW) 05:46:09 145.800 FM
AO-7 15 Sep 05:45:54 05:54:12 72° 105° (ESE) 06:02:27 29.400 - 29.500 MHz
PANSAT 15 Sep 06:02:25 06:05:43 27° 177° (S) 06:09:02 not established
RS-15 15 Sep 06:09:53 06:21:02 82° 300° (WNW) 06:32:00 29.354 - 29.394 USB, Beacon 29.352 USB
Hamsat 15 Sep 06:23:06 06:25:55 17° 93° (E) 06:28:42 145.90 MHz
OPAL 15 Sep 06:32:19 06:35:39 17° 265° (W) 06:39:01 ?
Uosat F 15 Sep 06:45:16 06:49:28 27° 292° (WNW) 06:53:39 435.120 FM
JAS-2 15 Sep 06:50:02 06:55:42 45° 100° (E) 07:02:03 435.800 - 435.900 CW/SSB, 435.910 FM
KITSAT 1 15 Sep 06:59:20 07:07:20 70° 246° (WSW) 07:15:18 435.175 FM
STRAND 1 15 Sep 07:03:12 07:08:02 47° 72° (ENE) 07:12:54 ?
AO-7 15 Sep 07:40:04 07:46:11 24° 303° (WNW) 07:52:18 29.400 - 29.500 MHz
PANSAT 15 Sep 07:42:24 07:45:27 23° 190° (S) 07:48:31 not established
Hamsat 15 Sep 07:58:07 08:01:56 32° 288° (WNW) 08:05:42 145.90 MHz
SO-67 15 Sep 08:11:10 08:14:26 40° 99° (E) 08:17:41 435.3500 MHz FM
RS-15 15 Sep 08:26:58 08:35:16 24° 325° (NW) 08:43:36 29.354 - 29.394 USB, Beacon 29.352 USB
JAS-2 15 Sep 08:35:53 08:40:33 25° 292° (WNW) 08:45:39 435.800 - 435.900 CW/SSB, 435.910 FM
MaSat-1 15 Sep 08:40:32 08:41:46 11° 99° (E) 08:43:01 437.345 MHz
STRAND 1 15 Sep 08:44:12 08:47:26 17° 266° (W) 08:50:41 ?
SO-50 15 Sep 09:21:08 09:25:58 73° 59° (ENE) 09:30:49 436.795 FM
UOSAT-12 15 Sep 09:47:55 09:50:13 13° 45° (NE) 09:52:31 437.025 FM, 437.400 FM
HO-68 15 Sep 10:00:22 10:07:13 46° 100° (E) 10:14:01 435.675 MHz FM
MaSat-1 15 Sep 10:12:55 10:17:54 76° 294° (WNW) 10:22:58 437.345 MHz
ISS 15 Sep 10:35:27 10:37:07 13° 25° (NNE) 10:38:46 145.800 FM
Oscar 11 15 Sep 10:49:32 10:53:43 45° 99° (E) 10:57:51 145.825 FM, Beacon 2401.500 USB
RS-15 15 Sep 10:50:03 10:53:46 12° 2° (N) 10:57:31 29.354 - 29.394 USB, Beacon 29.352 USB
UKube-1 15 Sep 11:01:09 11:05:31 90° 103° (ESE) 11:09:52 145.840 MHz, 145.915 MHz
SO-50 15 Sep 11:04:39 11:05:55 11° 254° (WSW) 11:07:11 436.795 FM
UOSAT-12 15 Sep 11:26:13 11:30:56 76° 242° (WSW) 11:35:33 437.025 FM, 437.400 FM
HO-68 15 Sep 11:48:32 11:54:36 31° 296° (WNW) 12:00:40 435.675 MHz FM
FUNcube-1 15 Sep 12:02:04 12:06:40 66° 285° (WNW) 12:11:13 145.950 - 145.970 MHz USB
ISS 15 Sep 12:10:55 12:14:15 89° 43° (NE) 12:17:34 145.800 FM
PCSat 15 Sep 12:25:55 12:28:21 13° 103° (ESE) 12:30:47 145.825 MHz
Oscar 11 15 Sep 12:27:15 12:29:28 14° 294° (WNW) 12:31:41 145.825 FM, Beacon 2401.500 USB
Oscar 16 15 Sep 12:44:46 12:46:05 11° 62° (ENE) 12:47:24 437.025 USB, Beacon 2401.1428
JAS-1B 15 Sep 12:54:01 12:57:58 14° 60° (ENE) 13:01:40 435.800 - 435.900 CW/SSB
RS-15 15 Sep 13:03:15 13:12:04 26° 38° (NE) 13:21:04 29.354 - 29.394 USB, Beacon 29.352 USB
Uribyol 2 15 Sep 13:23:29 13:25:01 11° 62° (ENE) 13:26:33 436.500 FM
AO-Echo 15 Sep 13:34:40 13:37:11 14° 65° (ENE) 13:39:40 ?
Sapphire 15 Sep 13:38:14 13:43:32 63° 113° (ESE) 13:48:53 437.095 MHz 1200 baud AX-25 AFSK
Oscar 19 15 Sep 13:41:57 13:46:46 40° 71° (ENE) 13:51:37 437.125 CW, 437.150 USB
AO-27 15 Sep 13:49:17 13:53:00 20° 66° (ENE) 13:56:43 436.795 MHz FM
PCSat 15 Sep 14:05:44 14:11:06 68° 298° (WNW) 14:16:31 145.825 MHz
Gurwin Techsat 1B 15 Sep 14:15:54 14:19:11 17° 64° (ENE) 14:22:28 435.225 FM
Oscar 16 15 Sep 14:19:30 14:24:41 82° 257° (WSW) 14:29:54 437.025 USB, Beacon 2401.1428
JAS-1B 15 Sep 14:38:28 14:47:37 76° 74° (ENE) 14:55:22 435.800 - 435.900 CW/SSB
ITAMSAT 1 15 Sep 14:53:10 14:58:20 86° 76° (ENE) 15:03:31 435.822 SSB
AO-7 15 Sep 14:54:07 14:58:09 15° 52° (NE) 15:02:10 29.400 - 29.500 MHz
TMSAT-1 15 Sep 14:54:38 14:59:05 29° 69° (ENE) 15:03:34 436.925 FM
Uribyol 2 15 Sep 14:58:37 15:03:46 79° 257° (WSW) 15:08:57 436.500 FM
AO-Echo 15 Sep 15:10:49 15:15:31 52° 260° (W) 15:20:08 ?
RS-15 15 Sep 15:14:52 15:26:05 88° 62° (ENE) 15:37:47 29.354 - 29.394 USB, Beacon 29.352 USB
Oscar 19 15 Sep 15:22:23 15:26:13 21° 266° (W) 15:30:04 437.125 CW, 437.150 USB
Sapphire 15 Sep 15:23:48 15:27:23 18° 310° (NW) 15:31:00 437.095 MHz 1200 baud AX-25 AFSK
AO-27 15 Sep 15:27:18 15:32:10 42° 261° (W) 15:37:05 436.795 MHz FM
Gurwin Techsat 1B 15 Sep 15:53:29 15:58:39 55° 260° (W) 16:03:52 435.225 FM
Uosat F 15 Sep 16:17:02 16:21:20 30° 69° (ENE) 16:25:39 435.120 FM
JAS-1B 15 Sep 16:32:03 16:38:22 21° 266° (W) 16:44:10 435.800 - 435.900 CW/SSB
TMSAT-1 15 Sep 16:34:17 16:38:53 30° 263° (W) 16:43:31 436.925 FM
AO-7 15 Sep 16:41:15 16:49:32 74° 70° (ENE) 16:57:49 29.400 - 29.500 MHz
Oscar 10/S400 15 Sep 16:54:22 17:12:41 45° 151° (SSE) 17:38:34 145.825 - 145.975 CW/USB, Beacon 145.810 USB
JAS-2 15 Sep 17:04:41 17:05:45 11° 62° (ENE) 17:06:49 435.800 - 435.900 CW/SSB, 435.910 FM
OPAL 15 Sep 17:05:55 17:09:08 17° 95° (E) 17:12:18 ?
RS-15 15 Sep 17:29:39 17:37:03 21° 259° (W) 17:44:42 29.354 - 29.394 USB, Beacon 29.352 USB
Uosat F 15 Sep 17:55:55 18:00:03 26° 264° (W) 18:04:13 435.120 FM
AO-7 15 Sep 18:37:10 18:42:55 20° 266° (W) 18:48:41 29.400 - 29.500 MHz
OPAL 15 Sep 18:43:15 18:48:15 51° 290° (WNW) 18:53:11 ?
JAS-2 15 Sep 18:44:45 18:50:15 78° 257° (WSW) 18:55:27 435.800 - 435.900 CW/SSB, 435.910 FM
Hamsat 15 Sep 18:47:39 18:51:59 69° 259° (W) 18:56:20 145.90 MHz
Saudisat 1A 15 Sep 18:56:46 19:01:10 84° 299° (WNW) 19:05:36 436.775 MHz
STRAND 1 15 Sep 19:17:34 19:21:20 20° 95° (E) 19:25:05 ?
KITSAT 1 15 Sep 19:30:58 19:36:59 24° 104° (ESE) 19:42:59 435.175 FM
MaSat-1 15 Sep 20:10:00 20:13:44 56° 250° (WSW) 20:16:54 437.345 MHz
SO-67 15 Sep 20:13:51 20:17:08 41° 261° (W) 20:20:26 435.3500 MHz FM
HO-68 15 Sep 20:26:46 20:32:24 26° 62° (ENE) 20:38:02 435.675 MHz FM
STRAND 1 15 Sep 20:55:51 21:00:37 40° 289° (WNW) 21:05:23 ?
KITSAT 1 15 Sep 21:23:38 21:31:39 67° 300° (WNW) 21:39:43 435.175 FM
Oscar 11 15 Sep 21:42:04 21:45:39 25° 70° (ENE) 21:49:14 145.825 FM, Beacon 2401.500 USB
UKube-1 15 Sep 21:53:40 21:57:51 52° 74° (ENE) 22:02:04 145.840 MHz, 145.915 MHz
HO-68 15 Sep 22:12:41 22:19:38 55° 258° (WSW) 22:26:37 435.675 MHz FM
Sapphire 15 Sep 22:29:36 22:34:13 28° 54° (NE) 22:38:48 437.095 MHz 1200 baud AX-25 AFSK
FUNcube-1 15 Sep 22:55:19 22:59:35 68° 76° (ENE) 23:04:01 145.950 - 145.970 MHz USB
PCSat 15 Sep 22:56:42 23:01:59 50° 60° (ENE) 23:07:13 145.825 MHz
Oscar 11 15 Sep 23:18:13 23:21:43 24° 264° (W) 23:25:16 145.825 FM, Beacon 2401.500 USB
